Theta_e
297 289 285 287 291 287 285 283 282 287 291 289 288 289 291 292 293 291 292 294 295 296 298 302 314 316 317 319 319 321 324 326 327 325 327 327 327 327 328 329 330 331 330 330
294 287 290 293 293 292 289 283 283 286 292 289 288 288 291 291 291 293 293 292 294 296 297 300 304 309 311 312 312 311 315 320 325 327 326 328 328 327 329 328 328 329 330 330
288 292 296 293 290 288 288 283 284 284 288 289 287 284 287 291 293 293 294 296 294 296 298 298 299 301 302 305 308 309 311 313 318 324 324 324 324 323 324 324 326 327 327 327
291 295 293 292 290 288 283 289 289 287 285 278 285 275 282 286 287 290 293 293 293 295 297 298 298 298 300 303 306 308 309 311 316 321 323 323 324 323 323 327 327 325 326 326
287 291 291 290 291 293 287 290 288 286 283 280 279 276 279 284 284 287 288 292 295 296 297 298 299 300 300 302 303 305 306 307 310 318 322 321 321 321 319 318 321 324 325 325
290 294 295 292 295 294 292 289 287 285 283 274 280 278 278 282 286 288 288 290 292 294 296 298 300 300 300 303 306 307 307 308 308 308 315 317 317 318 315 315 314 315 320 324
289 290 292 295 290 293 291 286 273 271 268 271 282 279 282 287 289 289 289 290 293 294 296 297 297 301 303 305 305 307 307 307 307 307 307 310 314 315 315 315 314 314 315 317
280 281 289 293 292 289 289 286 278 269 272 275 282 277 281 290 293 293 293 292 293 294 295 296 297 299 301 302 304 305 306 305 304 306 309 311 313 310 311 312 313 314 315 316
281 281 291 293 294 294 289 284 288 282 276 273 278 282 288 291 291 292 292 292 291 292 294 294 297 300 301 302 302 302 302 300 300 301 302 301 302 303 304 305 306 307 304 306
286 281 288 292 294 293 291 292 283 283 271 268 276 277 281 285 288 291 291 292 292 292 293 296 298 299 300 300 299 298 298 298 298 299 299 299 299 300 300 301 300 300 301 301
289 284 283 289 287 286 288 286 287 286 281 274 272 275 285 289 290 289 290 291 293 293 295 297 298 298 297 297 296 296 296 296 296 297 297 297 297 298 298 298 298 298 299 300
289 286 280 282 288 292 291 288 287 281 274 279 280 279 289 289 289 290 290 292 292 295 294 294 296 295 295 295 295 295 294 294 294 295 294 293 293 294 294 294 295 296 296 297
287 278 276 275 282 287 285 289 289 288 285 281 277 279 292 291 289 290 290 292 293 293 294 295 294 294 294 294 293 291 291 290 292 292 291 290 289 289 290 291 292 293 293 293
289 282 281 275 277 282 281 285 286 285 281 281 281 283 288 288 289 290 292 292 292 292 293 293 293 293 294 293 290 288 288 288 289 289 287 286 285 286 286 287 288 289 290 290
285 276 281 280 281 281 280 280 280 279 281 278 282 281 284 288 287 290 294 294 294 290 290 293 293 292 289 288 287 286 285 285 285 284 283 282 283 283 283 283 284 286 287 288
285 277 277 272 280 279 277 279 281 279 279 281 281 280 287 289 291 291 290 291 286 282 283 287 286 282 282 283 282 282 282 282 282 280 278 279 279 280 280 280 282 282 283 284
281 278 274 272 277 278 273 277 279 279 281 281 275 282 285 284 287 278 280 280 279 278 276 276 274 275 275 278 279 278 277 277 277 276 276 276 277 277 278 279 279 279 279 280
276 275 272 265 268 265 275 281 282 280 281 282 283 283 280 276 274 273 274 274 274 274 273 273 273 272 273 275 275 275 275 274 274 274 274 274 275 275 276 276 277 277 277 277
283 275 267 266 260 269 275 277 277 277 277 280 280 279 277 278 276 270 272 273 272 272 273 272 272 271 272 272 274 273 272 272 272 272 272 272 273 273 274 274 274 275 276 277
282 282 273 263 262 261 273 274 277 281 272 273 274 274 273 276 275 269 270 272 272 272 272 272 272 271 271 272 273 271 270 270 269 270 271 272 273 273 273 273 273 275 275 276
269 272 273 266 262 266 276 275 277 269 273 272 272 272 271 272 269 270 271 269 270 270 271 271 270 269 269 270 271 269 268 267 269 270 271 271 272 273 273 273 273 274 274 275
271 270 265 265 269 267 272 274 276 273 271 272 270 271 270 270 269 268 268 267 267 267 267 269 268 267 267 268 268 266 266 267 267 268 268 268 269 271 271 271 271 272 273 272
269 273 269 271 271 268 269 269 271 272 270 269 270 270 270 267 265 266 265 265 264 265 265 266 265 265 265 265 265 264 264 265 265 265 266 266 267 267 268 267 269 269 270 270
272 270 271 270 266 265 267 269 269 269 268 269 269 269 269 266 266 265 264 263 263 263 262 263 262 262 262 264 264 264 264 265 264 264 264 265 265 265 266 267 268 267 267 267
271 271 269 268 264 263 265 266 267 267 267 265 265 266 267 266 265 265 264 263 262 263 263 263 262 262 262 263 262 262 262 262 262 263 263 263 264 264 264 266 266 266 268 269
269 273 272 274 269 267 264 266 267 265 265 265 264 263 264 265 264 264 263 263 262 262 262 262 262 261 261 261 261 261 262 261 260 261 261 262 262 263 263 263 263 267 268 269
Wind_Speed
4 4 8 9 10 3 1 1 2 5 4 4 7 9 9 10 12 9 10 9 9 9 9 9 12 11 10 10 10 10 10 10 9 5 8 6 8 8 6 7 9 9 9 11
3 10 7 8 8 10 8 3 5 5 2 3 4 10 10 8 9 13 15 11 10 8 6 9 8 9 8 10 11 10 9 9 9 8 5 6 7 6 9 6 7 10 10 9
10 7 15 9 6 11 10 6 4 5 3 3 4 9 10 9 14 16 13 17 9 14 13 9 8 8 8 10 9 9 9 9 8 10 4 2 2 1 4 5 8 10 10 10
9 15 12 9 9 5 7 7 5 2 3 4 2 9 6 5 9 8 15 14 12 12 8 10 9 7 8 9 9 10 10 10 9 11 8 10 10 10 6 8 7 6 9 11
7 8 17 17 5 8 3 4 3 2 4 2 2 4 7 3 4 8 11 15 15 13 12 10 10 8 7 6 8 8 7 7 8 9 12 9 9 6 4 3 6 8 8 12
8 2 8 7 11 6 6 5 3 4 3 5 7 7 6 8 12 9 3 4 7 9 7 7 7 8 7 5 5 5 5 4 3 4 7 8 10 9 5 4 4 4 5 7
9 12 4 3 6 6 5 9 2 3 3 7 6 9 14 9 8 8 7 7 8 7 8 8 7 4 5 6 5 4 4 3 3 4 5 6 7 7 8 7 4 4 3 3
9 6 17 7 6 8 15 12 7 9 6 4 7 10 8 18 15 7 8 6 5 8 6 7 8 8 7 6 5 4 2 1 3 2 2 3 2 2 3 4 4 4 3 2
8 7 4 7 6 11 9 11 4 3 1 4 6 6 8 5 5 4 5 6 7 6 4 3 4 4 6 6 5 4 5 5 6 5 5 6 6 6 4 4 4 3 4 3
3 3 4 9 8 7 9 10 5 4 5 5 5 4 8 5 6 10 6 6 7 7 7 7 7 6 4 5 6 8 7 6 5 6 6 5 6 6 5 5 6 5 5 5
8 3 3 9 9 13 6 6 4 4 6 6 1 7 9 17 9 4 7 5 6 6 8 8 5 6 7 7 6 7 7 7 7 6 5 6 6 6 6 6 6 6 6 6
10 2 12 9 2 7 16 13 11 7 6 7 8 9 7 9 2 2 4 2 3 7 5 5 6 6 6 6 6 7 7 7 6 6 6 7 7 7 7 7 7 6 6 6
7 4 6 3 6 8 7 10 12 12 1 14 8 11 11 8 9 8 7 6 9 3 7 7 7 6 6 6 7 7 7 6 6 6 7 8 9 8 8 8 8 7 7 6
3 3 4 14 1 1 3 10 3 3 7 13 16 25 13 8 11 14 13 9 9 1 2 4 5 6 7 7 7 7 7 6 6 8 9 9 9 9 8 8 8 8 7 6
4 3 3 5 5 5 4 5 6 4 2 3 9 18 15 11 10 13 10 5 8 13 13 6 4 7 9 10 9 9 8 9 9 10 10 10 9 9 8 9 8 8 8 7
2 3 3 2 10 6 3 8 10 10 7 12 14 19 9 8 8 7 8 11 11 12 13 19 16 15 13 12 9 8 9 10 10 12 11 10 10 10 10 9 9 8 9 9
6 6 4 5 5 7 4 10 12 7 8 7 5 13 4 3 0 8 9 11 10 11 14 15 15 14 13 13 11 12 11 9 11 10 10 10 10 10 9 9 9 9 9 9
6 5 3 4 4 3 9 9 14 14 12 8 8 10 8 10 11 11 12 10 11 11 11 13 11 11 11 10 9 9 9 9 10 10 10 10 9 9 9 8 8 8 7 7
4 4 1 5 4 5 9 5 5 7 11 2 5 8 8 4 5 6 9 9 8 9 9 8 8 9 10 10 9 9 11 11 11 11 11 10 10 10 9 10 10 9 8 7
5 2 4 3 5 8 8 2 4 2 5 2 2 5 7 6 5 2 6 8 8 10 9 9 9 10 11 11 9 12 12 11 12 11 11 10 10 9 9 10 10 9 8 10
3 2 10 5 3 9 7 4 2 6 8 6 3 5 6 2 3 4 6 8 9 9 10 9 10 10 10 10 10 12 10 12 10 10 11 10 10 10 10 10 9 9 9 9
7 8 5 3 4 10 5 3 9 3 5 8 6 4 8 9 6 6 4 6 7 7 8 8 7 9 10 12 10 11 10 9 10 10 10 10 11 9 9 10 10 10 9 9
1 8 7 11 9 2 2 2 2 1 6 4 6 5 7 9 6 4 4 8 7 6 7 8 8 9 10 10 10 8 9 10 9 8 7 7 8 9 9 9 10 8 9 8
3 2 3 4 4 4 4 3 3 4 7 8 6 6 9 10 10 6 6 6 4 5 6 5 6 7 7 7 8 8 9 10 9 8 7 7 8 9 8 7 7 7 7 8
3 4 6 4 1 3 4 4 7 8 9 9 7 7 7 8 10 6 5 5 4 4 6 6 7 7 9 8 8 7 8 8 9 9 8 8 8 9 8 8 8 7 9 10
7 8 7 11 4 2 2 8 10 9 8 8 8 6 6 7 9 7 5 3 2 4 3 4 5 6 6 7 7 7 7 9 9 9 8 8 7 7 7 7 7 12 15 19
Wind_Direction
208 168 197 197 201 200 158 216 252 264 208 159 228 257 257 268 291 283 272 254 241 246 258 225 212 194 186 185 182 192 188 197 178 169 174 184 201 205 209 207 193 208 217 223
210 237 201 200 203 225 253 238 268 290 135 170 246 265 259 230 238 241 246 252 246 257 278 268 202 191 188 189 189 190 190 185 191 193 192 195 185 202 205 199 199 210 220 213
209 253 176 209 231 213 228 202 208 234 11 306 293 271 244 241 229 235 234 231 222 222 234 245 235 207 199 207 205 200 193 187 187 190 170 158 140 151 169 202 214 215 211 218
230 238 259 209 223 192 229 187 195 247 334 239 110 285 272 290 268 224 241 232 224 221 217 231 229 234 218 221 202 196 194 192 199 185 193 196 208 215 213 213 215 209 205 214
217 197 206 229 183 207 220 124 147 200 245 352 241 310 272 282 299 276 246 232 229 223 217 219 219 225 225 220 205 208 207 204 200 193 197 195 206 211 200 189 198 210 211 215
222 262 199 216 212 179 162 88 62 64 98 280 198 197 234 222 230 245 325 280 239 229 226 228 221 228 223 173 175 158 175 214 237 195 207 194 199 208 197 212 213 216 215 214
202 237 271 191 180 179 149 132 39 7 0 229 241 220 252 295 271 249 250 254 211 206 208 220 186 155 136 151 151 144 156 222 239 231 205 206 212 209 211 220 218 229 216 201
198 217 214 178 209 186 185 180 159 185 200 239 208 233 255 226 259 241 211 188 203 194 221 211 207 194 189 176 171 165 153 85 42 47 62 47 39 221 231 230 225 228 233 231
190 243 143 198 169 162 165 217 185 65 145 76 223 292 305 242 224 179 197 171 194 213 189 189 139 159 162 150 142 134 107 75 50 47 51 48 39 41 43 46 54 65 48 50
270 283 217 205 169 237 169 145 158 209 174 241 234 247 230 326 284 289 224 215 215 210 203 201 178 135 121 106 90 81 95 91 69 55 56 58 47 40 43 50 50 41 35 35
209 132 288 142 197 187 189 188 214 169 188 198 291 259 215 217 257 320 307 313 282 221 198 190 159 108 105 100 92 86 74 74 60 51 52 53 38 38 45 46 36 28 27 21
207 179 234 239 272 203 209 201 183 194 232 243 266 245 124 121 346 334 304 359 257 234 246 132 137 129 116 104 88 81 71 67 51 44 55 46 36 31 34 31 21 18 22 18
171 233 246 349 332 247 203 235 226 233 241 210 204 250 222 291 325 1 2 346 299 202 154 154 140 147 125 109 89 80 67 61 50 52 55 42 35 30 25 21 16 15 11 9
137 159 208 237 159 59 250 223 84 292 243 250 234 265 264 358 359 342 345 344 344 59 190 137 131 111 105 94 95 84 64 42 53 59 54 45 33 28 24 19 14 8 1 4
97 140 164 108 74 42 48 36 333 244 232 264 328 297 297 288 281 280 300 298 30 33 16 345 122 92 79 79 70 61 53 45 51 56 49 36 26 25 20 17 11 9 9 6
178 151 106 167 155 161 255 253 244 253 247 240 240 265 271 251 254 285 26 41 19 27 25 48 56 53 50 49 57 56 51 49 55 52 41 27 24 20 13 9 12 15 13 7
167 137 141 247 208 138 209 215 220 238 232 200 203 257 10 2 313 41 26 44 41 34 31 35 42 48 32 32 42 52 43 41 49 48 38 29 19 13 8 6 10 13 8 358
155 132 128 221 55 184 234 201 206 208 236 247 278 294 58 85 80 58 40 45 43 40 44 36 29 31 30 35 40 51 48 47 44 35 29 19 12 8 360 3 2 1 354 352
160 130 144 142 183 298 317 237 208 183 247 121 253 35 36 354 128 53 32 48 50 43 51 57 50 32 23 28 44 40 42 36 37 27 20 12 6 1 358 1 355 347 344 345
180 161 139 91 157 202 235 331 338 350 275 74 14 19 8 323 227 90 38 29 34 40 36 43 42 39 31 14 38 48 36 33 26 11 10 5 5 1 2 354 352 339 344 343
100 191 212 212 223 282 245 174 290 112 244 106 79 36 40 88 67 81 46 40 31 32 25 39 49 45 30 25 30 50 30 26 10 7 1 0 0 351 3 350 343 340 342 344
158 165 206 127 198 254 125 95 189 141 91 124 111 81 110 112 103 91 85 75 54 42 37 35 57 49 32 35 31 41 27 5 4 7 1 357 359 360 351 348 342 344 347 343
238 188 187 177 206 61 326 93 90 49 130 150 141 138 127 133 122 109 108 79 56 48 42 37 40 44 35 28 32 25 2 2 353 353 350 351 357 0 346 342 346 344 343 343
285 205 200 85 219 197 169 94 104 80 109 109 100 114 133 135 124 110 80 62 50 28 37 30 35 33 26 20 28 19 5 359 347 342 345 352 358 348 345 339 346 338 340 337
187 133 185 260 249 6 263 184 146 123 117 106 84 72 111 119 101 111 100 82 51 43 22 27 27 17 10 4 11 11 0 354 339 333 346 1 353 350 338 347 338 336 329 322
182 192 205 255 137 107 128 138 128 128 132 125 122 101 71 85 98 116 95 86 71 58 33 38 35 22 0 356 344 358 3 358 339 343 348 353 344 335 335 337 322 316 321 324